Overview Statistics Trail Chart Weather Telemetry Raw packets
 

This is the latest recevied weather packets stored in our database for station/object SR8WXL-13. If no packets are shown the sender has not sent any weather packets the latest 10 day(s).

<< 26 27 28 29 30 31 32 >>
Time Temp. Humidity Pressure Rain* Wind** Luminosity Snow
1788094448 27.22° C 49% 1031.1 hPa 0 mm - - -
1788093609 27.78° C 46% 1031.1 hPa 0 mm - - -
1788092874 28.89° C 46% 1031.1 hPa 0 mm - - -
1788092063 27.78° C 47% 1031.2 hPa 0 mm - - -
1788091278 27.22° C 47% 1031.5 hPa 0 mm - - -
1788090414 27.78° C 47% 1031.7 hPa 0 mm - - -
1788089668 27.22° C 51% 1031.5 hPa 0 mm - - -
1788088880 27.22° C 50% 1031.6 hPa 0 mm - - -
1788088086 26.11° C 52% 1031.8 hPa 0 mm - - -
1788087294 26.11° C 52% 1031.7 hPa 0 mm - - -
1788086543 25° C 56% 1031.9 hPa 0 mm - - -
1788085739 23.89° C 57% 1032 hPa 0 mm - - -
1788084968 23.89° C 57% 1032.1 hPa 0 mm - - -
1788084218 26.11° C 51% 1032.2 hPa 0 mm - - -
1788083359 26.11° C 52% 1032.3 hPa 0 mm - - -
1788082638 23.89° C 55% 1032.1 hPa 0 mm - - -
1788081794 25° C 54% 1032.2 hPa 0 mm - - -
1788081048 25° C 54% 1032.3 hPa 0 mm - - -
1788080269 25° C 58% 1032.4 hPa 0 mm - - -
1788079383 23.89° C 52% 1032.1 hPa 0 mm - - -
1788078603 23.89° C 62% 1032.3 hPa 0 mm - - -
1788077873 23.89° C 60% 1032.7 hPa 0 mm - - -
1788076989 22.78° C 66% 1032.3 hPa 0 mm - - -
1788076174 22.78° C 67% 1032.3 hPa 0 mm - - -
1788075403 22.22° C 70% 1032.5 hPa 0 mm - - -

* Rain latest hour (hover to see other rain measurements)
** Current wind speed in m/s (hover to see current wind gust speed)